[[{"header":{"parameterUnit":"m.s-1","parameterCategory":2,"la1":30.2991,"la2":30.254,"lo1":-89.0895,"lo2":-89.0444,"dy":0.0017,"dx":0.0017,"nx":28,"ny":28,"refTime":"2025-05-29T03:00:00:Z","depth":"0","parameterNumber":2,"parameterNumberName":"U-component_of_CURRENTS"},"data":[0,0,0,0,0,0,0,0,0,0,0,0,0,0,0,0,0,0,0,0,0,0,0,0,0,0,0,0,0,0,0,0,0,0,0,0,0,0,0,0,0,0,0,0,0,0,0,0,0,0,0,0,0,0,0,0,0,0,0.4713,0.4714,0,0.4807,0.4807,0.4808,0.4829,0.4829,0.4828,0.4828,0.4959,0.4963,0.4967,0,0,0,0,0,0,0,0,0,0,0,0,0,0.4597,0.4598,0.4712,0.4714,0.4716,0.4806,0.4807,0.4808,0.4829,0.4829,0.4828,0.4828,0.4958,0.4963,0.4967,0,0,0,0,0,0,0,0,0,0,0,0,0,0.466,0.4598,0.4712,0.474,0.4744,0.4806,0.4807,0.4808,0.4829,0.4829,0.4828,0.4828,0.4957,0.4962,0.4968,0.501,0,0,0.4985,0.4987,0,0,0,0,0,0,0,0,0.4656,0.4664,0.4735,0.4738,0.4743,0.481,0.4815,0.4879,0.4829,0.4792,0.4828,0.4828,0.4916,0.4925,0.4937,0.5016,0.5022,0.4985,0.4989,0.4991,0.4993,0,0,0,0,0,0,0,0.4652,0.466,0.4745,0.4736,0.4741,0.4764,0.4772,0.4827,0.4852,0.4795,0.4798,0.4816,0.4918,0.4931,0.494,0.5024,0.4985,0.499,0.4994,0.4996,0.5197,0.5199,0,0,0,0,0,0,0.4647,0.4656,0.4742,0.4749,0.4703,0.4767,0.4775,0.4785,0.4851,0.4862,0.4816,0.4817,0.4922,0.4933,0.4945,0.5022,0.4991,0.4996,0.5,0.5195,0.5197,0.52,0,0,0,0,0,0,0.4644,0.4654,0.4739,0.4708,0.4721,0.4769,0.478,0.4787,0.4807,0.4867,0.4878,0.483,0.4922,0.4937,0.4979,0.5026,0.4999,0.5004,0.5193,0.5196,0.5199,0.5162,0,0,0,0,0,0,0.464,0.4652,0.4657,0.4708,0.4723,0.4804,0.4781,0.4789,0.482,0.4822,0.4883,0.4894,0.4923,0.497,0.4985,0.5033,0.5008,0.519,0.5194,0.5198,0.5161,0.5163,0.5165,0,0,0,0,0,0.4636,0.4642,0.4657,0.4668,0.4728,0.4807,0.4818,0.4846,0.4821,0.4855,0.4858,0.4892,0.5006,0.4975,0.4992,0.5043,0.5188,0.5193,0.5197,0.5159,0.5163,0.5165,0,0,0,0,0,0,0.4579,0.4647,0.4663,0.4685,0.4758,0.4813,0.4831,0.4849,0.4878,0.4865,0.4896,0.491,0.4973,0.5013,0.4978,0.5117,0.5113,0.5121,0.5079,0.5083,0.5085,0.504,0.5013,0,0,0,0,0,0.4574,0.46,0.4679,0.4697,0.4729,0.4779,0.4808,0.484,0.4874,0.4885,0.4924,0.4965,0.5007,0.5041,0.5095,0.5159,0.516,0.5213,0.5216,0.5217,0.5195,0.5252,0.5256,0.5214,0.5214,0.5214,0,0,0.455,0.4594,0.4604,0.4688,0.4728,0.4777,0.4794,0.4851,0.4876,0.4897,0.4929,0.4975,0.5024,0.509,0.5126,0.5127,0.5224,0.5223,0.5223,0.5199,0.5256,0.526,0.5263,0.5217,0.5217,0.5216,0,0,0.4523,0.4562,0.458,0.4644,0.4731,0.4778,0.4797,0.4874,0.4894,0.4952,0.4957,0.501,0.51,0.513,0.5155,0.5207,0.5231,0.5257,0.5236,0.5292,0.5295,0.5297,0.5261,0.5261,0.5263,0.5263,0.5263,0,0.4491,0.453,0.4601,0.4643,0.4683,0.4773,0.4807,0.485,0.4929,0.4954,0.4968,0.5074,0.5115,0.5162,0.5169,0.5212,0.5215,0.5212,0.5291,0.5294,0.5297,0.526,0.526,0.5262,0.5262,0.5262,0.5262,0,0.4487,0.4526,0.4543,0.4622,0.468,0.4734,0.4815,0.4872,0.4914,0.4969,0.5046,0.5094,0.5159,0.5197,0.5186,0.5242,0.5223,0.5278,0.5269,0.5298,0.5257,0.5258,0.526,0.5261,0.5261,0.5261,0,0,0.4387,0.4516,0.4518,0.4555,0.4677,0.472,0.4777,0.4869,0.4892,0.5,0.5026,0.5109,0.5154,0.518,0.5208,0.524,0.524,0.5254,0.5258,0.5188,0.5295,0.512,0.5103,0.5316,0.5317,0.5318,0.524,0,0.4363,0.4428,0.4498,0.4553,0.4599,0.4699,0.4738,0.483,0.4911,0.4969,0.5049,0.5098,0.5144,0.5161,0.521,0.5243,0.5247,0.525,0.5302,0.53,0.5121,0.5102,0.4947,0.4852,0.524,0.524,0.524,0,0.4328,0.4388,0.4433,0.4531,0.4553,0.459,0.468,0.4737,0.4852,0.4916,0.5013,0.5067,0.5123,0.5152,0.5235,0.5239,0.5245,0.5264,0.5264,0.511,0.5128,0.49,0.4839,0.4747,0.5241,0.5241,0.5241,0,0.4228,0.4331,0.4361,0.4398,0.4523,0.4542,0.4606,0.472,0.4756,0.4875,0.4906,0.5031,0.5056,0.514,0.5175,0.5216,0.5222,0.5306,0.5142,0.5128,0.5006,0.4978,0.4835,0.5329,0.533,0.533,0.533,0,0.4174,0.4194,0.4314,0.4332,0.4355,0.4465,0.4488,0.4586,0.468,0.4707,0.4858,0.4876,0.5056,0.5084,0.5143,0.511,0.5215,0.5096,0.51,0.4983,0.4955,0.4879,0.4866,0.5327,0.5327,0.5328,0.5329,0,0.4051,0.4134,0.4177,0.4288,0.4309,0.4324,0.4404,0.4429,0.4543,0.4571,0.4594,0.4755,0.4807,0.4908,0.5005,0.5023,0.4893,0.4988,0.4775,0.4754,0.4521,0.4512,0.421,0.4093,0.4812,0.4807,0.4803,0,0.3992,0.4007,0.4107,0.4112,0.4153,0.4189,0.4208,0.4347,0.4375,0.4478,0.4472,0.4532,0.4553,0.4609,0.4664,0.4687,0.4652,0.4529,0.4586,0.4429,0.4427,0.4317,0.4237,0.4404,0.4397,0.4391,0.4387,0,0.3885,0.3922,0.396,0.3964,0.398,0.3987,0.4029,0.4025,0.4159,0.4169,0.4181,0.4194,0.4274,0.425,0.4274,0.4303,0.4318,0.4407,0.4348,0.414,0.3913,0.3829,0.4482,0.4336,0.4341,0.4345,0.4348,0.435,0.3786,0.3769,0.3801,0.3777,0.3793,0.3739,0.3667,0.3724,0.3695,0.3677,0.3846,0.3813,0.3943,0.3976,0.3945,0.3846,0.3904,0.3821,0.3832,0.3739,0.3578,0.4038,0.3842,0.3845,0.3846,0.3848,0.385,0,0.3602,0.3591,0.3595,0.353,0.3444,0.3525,0.3492,0.3395,0.3272,0.3385,0.3372,0.3425,0.3418,0.3518,0.3508,0.3355,0.3266,0.3271,0.3151,0.3115,0.3625,0.3561,0.317,0.317,0.317,0.317,0.317,0.317,0.3498,0.3403,0.3389,0.3176,0.313,0.2948,0.2884,0.2816,0.2849,0.2781,0.2805,0.2929,0.3161,0.3264,0.3149,0.3055,0.2855,0.2669,0.269,0.315,0.3205,0.3258,0.3195,0.2733,0.2733,0.2087,0.2082,0.2079]},{"header":{"parameterUnit":"m.s-1","parameterCategory":2,"la1":30.2991,"la2":30.254,"lo1":-89.0895,"lo2":-89.0444,"dy":0.0017,"dx":0.0017,"nx":28,"ny":28,"refTime":"2025-05-29T03:00:00:Z","depth":"0","parameterNumber":3,"parameterNumberName":"V-component_of_CURRENTS"},"data":[0,0,0,0,0,0,0,0,0,0,0,0,0,0,0,0,0,0,0,0,0,0,0,0,0,0,0,0,0,0,0,0,0,0,0,0,0,0,0,0,0,0,0,0,0,0,0,0,0,0,0,0,0,0,0,0,0,0,0.0097,0.0096,0,0.0035,0.0034,0.0034,-0.0013,-0.0014,-0.0014,-0.0014,-0.0227,-0.0232,-0.0238,0,0,0,0,0,0,0,0,0,0,0,0,0,0.0129,0.0129,0.0097,0.0096,0.0096,0.0036,0.0034,0.0033,-0.0013,-0.0014,-0.0014,-0.0014,-0.0225,-0.0232,-0.0238,0,0,0,0,0,0,0,0,0,0,0,0,0,0.0094,0.0129,0.0097,0.0067,0.0064,0.0036,0.0034,0.0033,-0.0013,-0.0014,-0.0014,-0.0014,-0.0223,-0.0231,-0.0239,-0.0284,0,0,-0.0264,-0.0268,0,0,0,0,0,0,0,0,0.0096,0.0092,0.0072,0.0069,0.0065,0.0021,-0.0032,-0.008,-0.0013,0.0013,-0.0014,-0.0014,-0.0156,-0.017,-0.0182,-0.0294,-0.0303,-0.0265,-0.027,-0.0273,-0.0276,0,0,0,0,0,0,0,0.0098,0.0094,0.007,0.0071,0.0067,0.0042,0.0036,-0.0041,-0.0074,0.0011,0.0008,0.0005,-0.016,-0.0174,-0.0188,-0.0306,-0.0265,-0.0272,-0.0277,-0.028,-0.0448,-0.0447,0,0,0,0,0,0,0.0114,0.0097,0.0072,0.0068,0.0083,0.0042,0.0036,0.0033,-0.007,-0.0084,0.0006,0.0003,-0.016,-0.0178,-0.0196,-0.0208,-0.0273,-0.0281,-0.0286,-0.0448,-0.0448,-0.0447,0,0,0,0,0,0,0.0115,0.0112,0.0074,0.0083,0.0077,0.0042,0.0039,0.0032,0.0019,-0.0072,-0.0089,0.0,-0.0161,-0.0185,-0.0237,-0.0219,-0.0285,-0.0292,-0.0449,-0.0448,-0.0447,-0.0263,0,0,0,0,0,0,0.0116,0.0113,0.0115,0.0084,0.0077,0.006,0.004,0.0031,0.0019,0.0015,-0.0083,-0.0102,-0.0163,-0.0224,-0.0245,-0.0231,-0.0299,-0.0449,-0.0449,-0.0448,-0.027,-0.0256,-0.0245,0,0,0,0,0,0.0117,0.0132,0.0115,0.0112,0.0082,0.006,0.0054,0.0026,0.0019,0.0013,-0.0031,-0.0099,-0.0234,-0.023,-0.0255,-0.0243,-0.045,-0.0449,-0.0448,-0.0275,-0.0259,-0.0245,0,0,0,0,0,0,0.015,0.0127,0.0109,0.0116,0.0088,0.0053,0.0054,0.0032,-0.0006,-0.0004,-0.009,-0.0113,-0.0151,-0.0229,-0.0222,-0.0291,-0.0356,-0.036,-0.0217,-0.0202,-0.019,-0.015,-0.0305,0,0,0,0,0,0.0158,0.0161,0.0127,0.0132,0.0123,0.0087,0.0077,0.006,0.0025,0.0009,-0.0058,-0.0124,-0.0168,-0.0207,-0.027,-0.0313,-0.0345,-0.0326,-0.0313,-0.0302,-0.0288,-0.0284,-0.0268,-0.0444,-0.0444,-0.0444,0,0,0.0175,0.0161,0.0164,0.0138,0.0119,0.0126,0.008,0.0075,0.0088,-0.0012,-0.0023,-0.0085,-0.0169,-0.0197,-0.0224,-0.0259,-0.027,-0.03,-0.0289,-0.0282,-0.0281,-0.0263,-0.0247,-0.0443,-0.0443,-0.0443,0,0,0.0218,0.0196,0.0215,0.0199,0.0178,0.0158,0.016,0.0124,0.0113,0.0087,0.0041,0.0007,-0.0103,-0.0126,-0.0157,-0.0122,-0.0197,-0.0166,-0.0074,-0.0069,-0.0053,-0.0039,-0.0048,-0.0037,-0.0164,-0.0163,-0.0163,0,0.0239,0.0257,0.0215,0.0231,0.0238,0.0181,0.0211,0.0192,0.0145,0.0158,0.0098,0.0022,-0.0058,-0.0042,-0.0031,-0.0088,-0.0107,-0.0114,-0.0046,-0.0034,-0.0023,-0.0036,-0.0025,-0.0155,-0.0156,-0.0156,-0.0157,0,0.0295,0.031,0.0323,0.0327,0.0324,0.0339,0.0315,0.0311,0.0281,0.0268,0.026,0.0166,0.0125,0.0091,0.0034,0.0073,0.003,-0.0017,-0.0068,0.0008,-0.0013,-0.0005,-0.0142,-0.0145,-0.0148,-0.015,0,0,0.0349,0.0361,0.0367,0.0397,0.0383,0.0397,0.0423,0.0444,0.0497,0.0419,0.047,0.0385,0.0339,0.0299,0.0226,0.0217,0.0268,0.0134,0.013,0.0155,0.0277,0.0212,0.0212,0.024,0.0242,0.0244,0.0237,0,0.0407,0.0466,0.0456,0.0528,0.0562,0.0539,0.0577,0.0593,0.0584,0.061,0.0539,0.0534,0.0418,0.04,0.0381,0.0297,0.0294,0.0274,0.0173,0.017,0.0128,0.0221,0.0229,0.0221,0.0244,0.0245,0.0246,0,0.0472,0.0506,0.0584,0.0652,0.0668,0.0705,0.0783,0.0811,0.0837,0.083,0.0817,0.0743,0.0714,0.0593,0.0514,0.0507,0.041,0.0336,0.0334,0.0215,0.0119,0.0142,0.0232,0.0079,0.0256,0.0255,0.0254,0,0.0544,0.0606,0.0679,0.0697,0.0753,0.0804,0.084,0.0889,0.0943,0.0973,0.0992,0.0947,0.0907,0.0801,0.061,0.0573,0.0519,0.0448,0.0306,0.0299,0.0255,0.0241,0.021,0.0413,0.0413,0.0413,0.0413,0,0.0617,0.0679,0.0724,0.0766,0.088,0.0893,0.1019,0.105,0.1111,0.1192,0.1107,0.1132,0.0956,0.0873,0.0701,0.0532,0.059,0.035,0.0308,0.0315,0.0307,0.0125,0.0025,0.0413,0.0413,0.0413,0.0413,0,0.0687,0.0706,0.0804,0.0883,0.0916,0.1003,0.1115,0.1205,0.1242,0.1335,0.1337,0.1291,0.1178,0.0988,0.082,0.065,0.0396,0.0412,0.0422,0.038,0.0085,-0.0006,-0.0122,-0.0186,0.0273,0.0271,0.027,0,0.0726,0.0781,0.0888,0.0954,0.0995,0.1112,0.1196,0.1266,0.1358,0.1424,0.1473,0.1395,0.1345,0.1081,0.0788,0.052,0.0354,0.0342,0.0265,0.0098,-0.0034,-0.0111,-0.016,0.0282,0.0281,0.028,0.0279,0,0.081,0.0846,0.0921,0.1045,0.1146,0.1264,0.1382,0.1466,0.1546,0.1608,0.1667,0.1632,0.1373,0.111,0.074,0.0542,0.0231,0.0313,0.0158,-0.0005,-0.0106,-0.0197,0.0239,0.0272,0.0272,0.0273,0.0273,0.0274,0.0871,0.0935,0.1025,0.1149,0.126,0.139,0.1481,0.1597,0.1722,0.1817,0.1801,0.1791,0.1423,0.0915,0.0633,0.0143,0.0128,-0.0011,-0.0098,-0.0154,-0.0239,0.0167,0.0129,0.0129,0.0129,0.0129,0.0129,0,0.0934,0.1003,0.1119,0.1251,0.1363,0.1414,0.1585,0.1674,0.1798,0.1912,0.1951,0.1789,0.1314,0.0852,0.0178,-0.0181,-0.0297,-0.037,-0.0454,-0.0479,-0.0088,-0.0113,-0.0226,-0.0226,-0.0226,-0.0226,-0.0226,-0.0225,0.097,0.1071,0.1123,0.1301,0.1391,0.1528,0.1616,0.1753,0.1874,0.1992,0.2022,0.2028,0.1667,0.0441,-0.0346,-0.051,-0.0752,-0.0834,-0.0946,-0.0671,-0.0644,-0.0617,-0.0662,-0.0888,-0.0889,-0.1275,-0.1279,-0.1283]}],[{"header":{"parameterUnit":"m.s-1","parameterCategory":2,"la1":30.2991,"la2":30.254,"lo1":-89.0895,"lo2":-89.0444,"dy":0.0017,"dx":0.0017,"nx":28,"ny":28,"refTime":"2025-05-29T03:00:00:Z","depth":"2","parameterNumber":2,"parameterNumberName":"U-component_of_CURRENTS"},"data":[0,0,0,0,0,0,0,0,0,0,0,0,0,0,0,0,0,0,0,0,0,0,0,0,0,0,0,0,0,0,0,0,0,0,0,0,0,0,0,0,0,0,0,0,0,0,0,0,0,0,0,0,0,0,0,0,0,0,0.3327,0.3328,0,0.3389,0.3389,0.339,0.3408,0.3407,0.3407,0.3407,0.3518,0.3521,0.3524,0,0,0,0,0,0,0,0,0,0,0,0,0,0.3287,0.3287,0.3327,0.3328,0.3329,0.3388,0.3389,0.339,0.3408,0.3407,0.3407,0.3407,0.3517,0.3521,0.3525,0,0,0,0,0,0,0,0,0,0,0,0,0,0.332,0.3287,0.3327,0.3346,0.3349,0.3388,0.3389,0.339,0.3408,0.3407,0.3407,0.3407,0.3516,0.3521,0.3525,0.3559,0,0,0.354,0.3542,0,0,0,0,0,0,0,0,0.3318,0.3321,0.3342,0.3345,0.3348,0.3392,0.3416,0.345,0.3408,0.3383,0.3407,0.3407,0.3482,0.3489,0.3498,0.3564,0.3569,0.354,0.3543,0.3545,0.3546,0,0,0,0,0,0,0,0.3315,0.3319,0.3349,0.3343,0.3347,0.3373,0.3377,0.3422,0.3433,0.3385,0.3387,0.3397,0.3484,0.3494,0.3501,0.357,0.354,0.3544,0.3547,0.3549,0.3788,0.3791,0,0,0,0,0,0,0.3309,0.3316,0.3347,0.3351,0.3334,0.3374,0.3378,0.3376,0.3431,0.344,0.3397,0.3398,0.3486,0.3496,0.3505,0.3627,0.3545,0.3549,0.3552,0.3784,0.3789,0.3793,0,0,0,0,0,0,0.3307,0.331,0.3345,0.3338,0.3344,0.3375,0.3373,0.3378,0.3421,0.344,0.3449,0.344,0.3486,0.3499,0.3523,0.3628,0.3551,0.3555,0.378,0.3786,0.3791,0.382,0,0,0,0,0,0,0.3306,0.3309,0.3331,0.3337,0.3344,0.3377,0.3373,0.3379,0.3426,0.3428,0.3479,0.3487,0.3487,0.3516,0.3528,0.3633,0.3559,0.3776,0.3783,0.3789,0.3814,0.3826,0.3835,0,0,0,0,0,0.3304,0.3319,0.3331,0.3337,0.3364,0.3378,0.3384,0.3404,0.3429,0.3445,0.3451,0.3487,0.3571,0.3519,0.3533,0.3643,0.3773,0.3781,0.3789,0.381,0.3823,0.3835,0,0,0,0,0,0,0.33,0.3323,0.3336,0.3355,0.3374,0.3381,0.3407,0.3431,0.3454,0.3471,0.3483,0.349,0.3587,0.3596,0.3539,0.3739,0.3701,0.3712,0.3713,0.3726,0.3736,0.3685,0.3563,0,0,0,0,0,0.3313,0.3333,0.3352,0.3366,0.3382,0.3408,0.343,0.3449,0.3461,0.3475,0.3496,0.3551,0.363,0.3651,0.3714,0.3775,0.3754,0.3876,0.3886,0.3894,0.3867,0.3915,0.3926,0.3819,0.3819,0.3819,0,0,0.3308,0.333,0.3337,0.3369,0.3387,0.3442,0.342,0.346,0.3496,0.3486,0.3534,0.3594,0.366,0.3742,0.3791,0.3754,0.3912,0.3904,0.391,0.3877,0.3925,0.3934,0.3943,0.3824,0.3823,0.3823,0,0,0.3294,0.3334,0.3344,0.3375,0.3422,0.3478,0.3502,0.3531,0.3529,0.3575,0.3613,0.368,0.3776,0.3819,0.3866,0.3969,0.3984,0.4059,0.4042,0.4092,0.4099,0.4105,0.4063,0.4065,0.404,0.404,0.404,0,0.3294,0.3315,0.3348,0.3374,0.3414,0.3506,0.3541,0.3576,0.3605,0.3593,0.3599,0.3769,0.3811,0.3928,0.3955,0.3994,0.3991,0.3981,0.4098,0.4105,0.411,0.4066,0.4068,0.4042,0.4042,0.4042,0.4041,0,0.3288,0.3323,0.3335,0.3425,0.3475,0.3526,0.3589,0.3642,0.3694,0.3706,0.3797,0.3842,0.3934,0.4002,0.3996,0.4108,0.4082,0.412,0.4048,0.4122,0.4071,0.4073,0.4045,0.4045,0.4044,0.4043,0,0,0.3233,0.3317,0.3324,0.3353,0.3509,0.3535,0.3638,0.3708,0.3752,0.3812,0.3846,0.3971,0.4001,0.4054,0.4111,0.4121,0.4144,0.4123,0.4124,0.4044,0.4193,0.4061,0.4049,0.4215,0.4216,0.4217,0.4128,0,0.3223,0.3273,0.3331,0.3416,0.3459,0.3575,0.3647,0.3725,0.3795,0.3855,0.3919,0.3996,0.403,0.4084,0.4123,0.4164,0.4155,0.4159,0.4164,0.4161,0.4008,0.405,0.3796,0.3687,0.4129,0.4129,0.4129,0,0.3199,0.3245,0.3306,0.3387,0.3411,0.3506,0.3649,0.3711,0.3832,0.3862,0.3977,0.4028,0.4107,0.4119,0.4188,0.4199,0.4186,0.4181,0.418,0.4039,0.4033,0.3698,0.3672,0.4131,0.4131,0.4131,0.4131,0,0.3132,0.3214,0.3269,0.3306,0.3444,0.3483,0.3588,0.3715,0.373,0.3882,0.3917,0.4051,0.4105,0.416,0.4161,0.4185,0.4187,0.4231,0.4084,0.4072,0.384,0.3805,0.4242,0.4242,0.4243,0.4243,0.4243,0,0.3108,0.3134,0.3245,0.3268,0.3329,0.3434,0.3502,0.3615,0.3743,0.3772,0.3921,0.3963,0.4116,0.4138,0.4158,0.4109,0.4199,0.4056,0.4051,0.3842,0.381,0.4196,0.4192,0.4239,0.424,0.4241,0.4241,0,0.3023,0.3106,0.3137,0.3253,0.3296,0.3339,0.3449,0.3487,0.363,0.3698,0.3733,0.3886,0.3925,0.4007,0.4062,0.4059,0.4045,0.3994,0.3688,0.3649,0.3886,0.3885,0.3825,0.382,0.3815,0.3812,0.3808,0,0.2979,0.3002,0.3091,0.312,0.3181,0.3254,0.3305,0.3444,0.3481,0.3617,0.3633,0.37,0.3731,0.3761,0.3775,0.3765,0.3888,0.3488,0.3494,0.3847,0.3849,0.3855,0.386,0.3182,0.3175,0.3168,0.3163,0,0.2892,0.2934,0.2969,0.3012,0.3066,0.3083,0.3165,0.3169,0.3315,0.3362,0.34,0.3425,0.3487,0.3381,0.3388,0.3362,0.3486,0.3352,0.3819,0.3338,0.3238,0.3242,0.3268,0.3105,0.3111,0.3115,0.3118,0.312,0.2809,0.28,0.2843,0.2869,0.2913,0.2889,0.2855,0.2926,0.2931,0.2972,0.3105,0.3074,0.3137,0.3018,0.2926,0.2878,0.3125,0.3018,0.304,0.3068,0.3021,0.292,0.2712,0.2715,0.2718,0.2721,0.2723,0,0.267,0.2675,0.2692,0.2682,0.2644,0.2728,0.2729,0.2666,0.261,0.2705,0.2726,0.2521,0.2456,0.251,0.2355,0.2359,0.2369,0.2263,0.2268,0.2327,0.238,0.23,0.1798,0.1795,0.1792,0.1789,0,0,0.2593,0.254,0.2532,0.241,0.2412,0.2305,0.2269,0.2231,0.2251,0.2183,0.2166,0.2356,0.2444,0.2085,0.2054,0.1891,0.2093,0.1822,0.2574,0.2639,0.2688,0.2832,0.2777,0,0,0,0,0]},{"header":{"parameterUnit":"m.s-1","parameterCategory":2,"la1":30.2991,"la2":30.254,"lo1":-89.0895,"lo2":-89.0444,"dy":0.0017,"dx":0.0017,"nx":28,"ny":28,"refTime":"2025-05-29T03:00:00:Z","depth":"2","parameterNumber":3,"parameterNumberName":"V-component_of_CURRENTS"},"data":[0,0,0,0,0,0,0,0,0,0,0,0,0,0,0,0,0,0,0,0,0,0,0,0,0,0,0,0,0,0,0,0,0,0,0,0,0,0,0,0,0,0,0,0,0,0,0,0,0,0,0,0,0,0,0,0,0,0,0.0242,0.0242,0,0.0198,0.0197,0.0197,0.0155,0.0155,0.0155,0.0155,0.0046,0.0044,0.0041,0,0,0,0,0,0,0,0,0,0,0,0,0,0.0245,0.0245,0.0242,0.0242,0.0242,0.0198,0.0197,0.0196,0.0156,0.0155,0.0155,0.0155,0.0047,0.0044,0.0041,0,0,0,0,0,0,0,0,0,0,0,0,0,0.0224,0.0245,0.0242,0.0219,0.0216,0.0198,0.0197,0.0196,0.0156,0.0155,0.0155,0.0155,0.0048,0.0044,0.004,0.0021,0,0,0.0028,0.0026,0,0,0,0,0,0,0,0,0.0225,0.0223,0.0222,0.022,0.0218,0.0185,0.0159,0.0136,0.0156,0.0175,0.0155,0.0155,0.0089,0.0082,0.007,0.0016,0.0012,0.0028,0.0025,0.0023,0.0022,0,0,0,0,0,0,0,0.0227,0.0225,0.0221,0.0222,0.0219,0.0195,0.0191,0.0154,0.0131,0.0173,0.0171,0.0172,0.0087,0.0074,0.0067,0.001,0.0028,0.0024,0.0022,0.002,-0.0025,-0.0023,0,0,0,0,0,0,0.0242,0.0227,0.0223,0.022,0.0224,0.0195,0.0191,0.0193,0.0132,0.0124,0.0172,0.017,0.0081,0.0072,0.0063,0.0059,0.0023,0.002,0.0017,-0.0026,-0.0024,-0.0023,0,0,0,0,0,0,0.0242,0.0242,0.0225,0.0225,0.0221,0.0196,0.0198,0.0192,0.0183,0.0133,0.0122,0.0169,0.0081,0.0069,0.0041,0.0054,0.0018,0.0014,-0.0027,-0.0025,-0.0024,0.0037,0,0,0,0,0,0,0.0242,0.0242,0.0247,0.0226,0.0222,0.0225,0.0198,0.0192,0.0185,0.0182,0.0127,0.0116,0.008,0.0048,0.0037,0.0048,0.0011,-0.0029,-0.0026,-0.0024,0.0033,0.0041,0.0047,0,0,0,0,0,0.0242,0.0258,0.0247,0.0247,0.023,0.0226,0.0222,0.02,0.0186,0.0188,0.0153,0.0118,0.0056,0.0045,0.0033,0.0042,-0.003,-0.0027,-0.0024,0.003,0.0039,0.0047,0,0,0,0,0,0,0.0263,0.0255,0.0243,0.0255,0.0245,0.0221,0.0223,0.0206,0.018,0.0177,0.0123,0.0111,0.009,0.0064,0.0054,0.004,0.0011,0.0012,0.0057,0.0065,0.0072,0.0104,0.0008,0,0,0,0,0,0.027,0.028,0.0264,0.0275,0.0271,0.0246,0.0241,0.023,0.0207,0.0195,0.0155,0.0121,0.0092,0.0078,0.0045,0.0033,0.0005,0.0037,0.0044,0.0049,0.007,0.004,0.0046,-0.0014,-0.0014,-0.0014,0,0,0.0281,0.0279,0.0284,0.028,0.0267,0.0277,0.0242,0.0245,0.0259,0.0186,0.0183,0.0135,0.0094,0.008,0.0071,0.006,0.005,0.0053,0.0058,0.0075,0.0043,0.0049,0.0054,-0.0012,-0.0012,-0.0013,0,0,0.0317,0.0306,0.0327,0.0325,0.032,0.0305,0.031,0.0289,0.0284,0.0271,0.0228,0.0197,0.0146,0.0127,0.0109,0.0137,0.0081,0.0124,0.0185,0.0156,0.016,0.0164,0.0123,0.0123,0.0133,0.0134,0.0134,0,0.033,0.0357,0.0333,0.0354,0.0363,0.0323,0.0352,0.0343,0.0316,0.032,0.0283,0.0217,0.0175,0.017,0.0181,0.0152,0.012,0.0153,0.0164,0.0167,0.0169,0.0127,0.0126,0.0137,0.0136,0.0136,0.0136,0,0.0382,0.0403,0.0417,0.043,0.0434,0.0453,0.0441,0.0443,0.042,0.0402,0.0381,0.0313,0.0283,0.0258,0.0224,0.0229,0.0194,0.0168,0.0141,0.0179,0.0132,0.0129,0.0141,0.014,0.0139,0.0138,0,0,0.0415,0.0448,0.0453,0.0484,0.0481,0.0497,0.0521,0.0534,0.0564,0.0504,0.0524,0.0456,0.0409,0.0389,0.0333,0.0303,0.0281,0.0252,0.0248,0.0208,0.0205,0.0176,0.017,0.0249,0.0249,0.025,0.0159,0,0.0464,0.0528,0.0527,0.0592,0.0627,0.0611,0.0639,0.0645,0.0632,0.0636,0.0563,0.0545,0.0464,0.0444,0.0403,0.0314,0.028,0.0308,0.0178,0.0174,0.0141,0.0168,0.0192,0.0113,0.0156,0.0156,0.0155,0,0.0518,0.0559,0.0631,0.0694,0.0706,0.0733,0.0783,0.0808,0.0801,0.079,0.075,0.0681,0.0628,0.0551,0.0419,0.0437,0.0339,0.0258,0.0252,0.0208,0.0142,0.0085,0.0107,0.0151,0.0151,0.0151,0.0152,0,0.0567,0.0637,0.0702,0.072,0.0773,0.081,0.0836,0.0852,0.0892,0.0888,0.0889,0.0806,0.076,0.0632,0.0457,0.044,0.0303,0.0257,0.0136,0.0132,0.0121,0.0116,0.0177,0.0177,0.0177,0.0177,0.0178,0,0.0626,0.0681,0.0735,0.0772,0.0864,0.0876,0.0962,0.0982,0.1008,0.1053,0.097,0.096,0.0778,0.0664,0.0503,0.0315,0.0336,0.0159,0.0115,0.0142,0.014,0.0152,0.015,0.0174,0.0175,0.0175,0.0176,0,0.0672,0.07,0.0788,0.086,0.0891,0.0958,0.1044,0.1103,0.1115,0.117,0.1166,0.1078,0.0929,0.0734,0.0526,0.0378,0.0201,0.0129,0.0167,0.013,0.0034,0.0036,-0.0012,-0.0014,-0.0015,-0.0016,-0.0017,0,0.0699,0.0748,0.0852,0.0912,0.095,0.1045,0.1109,0.1157,0.1216,0.1231,0.1254,0.1136,0.1057,0.0742,0.0476,0.0208,0.0174,0.0052,0.0028,0.0057,0.0018,0.0023,0.0027,0.0026,0.0025,0.0025,0.0025,0,0.0757,0.0789,0.0859,0.0977,0.1062,0.1163,0.1253,0.131,0.1358,0.1389,0.1389,0.1328,0.1045,0.0769,0.0419,0.0242,0.0098,0.0033,0.0062,0.0076,0.0086,0.0051,0.0055,0.0021,0.0021,0.0022,0.0022,0.0022,0.0795,0.085,0.0935,0.1047,0.1146,0.1247,0.1323,0.1408,0.1487,0.1531,0.1481,0.14,0.1116,0.0656,0.0349,0.0045,0.0061,-0.0051,-0.0047,-0.0044,-0.0017,-0.0009,-0.0088,-0.0088,-0.0089,-0.0089,-0.0089,0,0.0836,0.0895,0.0999,0.1117,0.1212,0.1265,0.1395,0.146,0.1542,0.1589,0.1588,0.1303,0.1004,0.0678,0.0219,-0.0055,-0.006,-0.0139,-0.0091,-0.0085,-0.008,-0.0054,-0.0136,-0.0137,-0.0138,-0.0139,0,0,0.0858,0.0945,0.099,0.1137,0.1221,0.1343,0.1411,0.1509,0.1575,0.1599,0.1563,0.1504,0.1102,0.0758,0.0385,0.0117,0.0084,0.0073,0.0143,0.0251,0.0258,0.0004,0.0055,0,0,0,0,0]}],[{"header":{"parameterUnit":"m.s-1","parameterCategory":2,"la1":30.2991,"la2":30.254,"lo1":-89.0895,"lo2":-89.0444,"dy":0.0017,"dx":0.0017,"nx":28,"ny":28,"refTime":"2025-05-29T03:00:00:Z","depth":"4","parameterNumber":2,"parameterNumberName":"U-component_of_CURRENTS"},"data":[0,0,0,0,0,0,0,0,0,0,0,0,0,0,0,0,0,0,0,0,0,0,0,0,0,0,0,0,0,0,0,0,0,0,0,0,0,0,0,0,0,0,0,0,0,0,0,0,0,0,0,0,0,0,0,0,0,0,0.1608,0.1608,0,0.163,0.163,0.1629,0.1664,0.1665,0.1666,0.1667,0.1631,0.163,0.1628,0,0,0,0,0,0,0,0,0,0,0,0,0,0.1592,0.1592,0.1608,0.1608,0.1609,0.163,0.163,0.1629,0.1664,0.1665,0.1667,0.1668,0.1632,0.163,0.1628,0,0,0,0,0,0,0,0,0,0,0,0,0,0.1601,0.1591,0.1608,0.1632,0.1635,0.163,0.163,0.1629,0.1664,0.1665,0.1667,0.1668,0.1633,0.163,0.1627,0.1579,0,0,0.1618,0.1617,0,0,0,0,0,0,0,0,0.16,0.1601,0.1628,0.163,0.1633,0.165,0.1611,0.1611,0.1664,0.1648,0.1667,0.1669,0.1634,0.1631,0.1626,0.1577,0.1576,0.1618,0.1617,0.1615,0.1614,0,0,0,0,0,0,0,0.1599,0.16,0.1612,0.1628,0.1632,0.1641,0.1643,0.1611,0.1628,0.165,0.1653,0.1662,0.1635,0.1629,0.1626,0.1575,0.1618,0.1616,0.1614,0.1613,0.1643,0.1645,0,0,0,0,0,0,0.1604,0.1599,0.1611,0.1613,0.1625,0.164,0.1643,0.1639,0.163,0.1631,0.1661,0.1664,0.1633,0.1629,0.1625,0.1709,0.1615,0.1613,0.1611,0.164,0.1643,0.1646,0,0,0,0,0,0,0.1603,0.1604,0.1611,0.1611,0.1613,0.1639,0.1635,0.1639,0.1683,0.1639,0.1639,0.1707,0.1634,0.1629,0.1654,0.1702,0.1611,0.1609,0.1637,0.1641,0.1645,0.1786,0,0,0,0,0,0,0.1602,0.1603,0.1618,0.1611,0.1613,0.1613,0.1634,0.1639,0.1685,0.169,0.1677,0.1673,0.1635,0.1658,0.1651,0.1697,0.1606,0.1634,0.1639,0.1644,0.1778,0.1794,0.1807,0,0,0,0,0,0.1601,0.161,0.1617,0.1621,0.1627,0.1614,0.1615,0.1636,0.1687,0.1687,0.1718,0.1676,0.1683,0.1658,0.1648,0.1695,0.1632,0.1638,0.1643,0.1771,0.1791,0.1807,0,0,0,0,0,0,0.161,0.1615,0.1623,0.1633,0.1628,0.1622,0.1645,0.1667,0.1692,0.1722,0.17,0.1696,0.168,0.1697,0.1671,0.172,0.1653,0.1657,0.1754,0.1771,0.1786,0.1794,0.1604,0,0,0,0,0,0.1618,0.1632,0.1622,0.1635,0.1641,0.1656,0.1669,0.1679,0.1695,0.1712,0.1721,0.1734,0.1688,0.1746,0.1664,0.1751,0.1733,0.1778,0.1793,0.1805,0.1808,0.1848,0.1867,0.1665,0.1665,0.1665,0,0,0.163,0.1634,0.1645,0.164,0.1651,0.1649,0.1668,0.1692,0.1717,0.1699,0.1768,0.172,0.1689,0.1718,0.1731,0.1772,0.1856,0.1813,0.1824,0.1819,0.1856,0.1876,0.1893,0.1669,0.1668,0.1667,0,0,0.1645,0.1662,0.1675,0.1676,0.1692,0.1681,0.1701,0.1723,0.1765,0.1805,0.1773,0.1809,0.1799,0.1813,0.1809,0.1882,0.1842,0.1866,0.2059,0.21,0.2116,0.2131,0.214,0.2155,0.1987,0.1987,0.1988,0,0.1662,0.1669,0.1675,0.1685,0.1702,0.1704,0.1718,0.174,0.1778,0.1841,0.184,0.1858,0.1837,0.1899,0.1939,0.1912,0.1921,0.1994,0.212,0.2134,0.2146,0.2152,0.2166,0.1995,0.1994,0.1993,0.1993,0,0.1672,0.1692,0.1706,0.1713,0.1723,0.1736,0.1756,0.1805,0.1865,0.1906,0.1966,0.1963,0.2011,0.2016,0.2009,0.211,0.2075,0.2041,0.2075,0.2175,0.2175,0.2187,0.2006,0.2003,0.2001,0.1999,0,0,0.1666,0.1704,0.1713,0.1737,0.1748,0.1755,0.1814,0.187,0.1949,0.2014,0.2129,0.2129,0.2179,0.2179,0.2191,0.2299,0.2401,0.227,0.2269,0.228,0.2486,0.2325,0.2321,0.2408,0.2411,0.2413,0.2452,0,0.1673,0.1698,0.1721,0.1757,0.1767,0.1813,0.1866,0.1935,0.2,0.2104,0.2187,0.2231,0.2229,0.2282,0.2382,0.233,0.2439,0.2392,0.2385,0.2384,0.223,0.2332,0.2422,0.2461,0.2463,0.2465,0.2467,0,0.1661,0.1685,0.172,0.1798,0.1816,0.1845,0.1954,0.201,0.2143,0.2219,0.2338,0.2351,0.2487,0.2458,0.2542,0.2518,0.2528,0.2522,0.2523,0.2326,0.2245,0.2337,0.2487,0.2486,0.2484,0.2483,0.2481,0,0.163,0.1687,0.1721,0.1742,0.1816,0.1888,0.1949,0.2067,0.2147,0.2307,0.2373,0.2494,0.256,0.2599,0.2608,0.2591,0.2668,0.2628,0.2495,0.2483,0.2551,0.2535,0.2702,0.2702,0.2702,0.2701,0.2701,0,0.1601,0.1641,0.1722,0.1748,0.1823,0.1901,0.2011,0.2103,0.2238,0.2329,0.2446,0.2508,0.2604,0.2651,0.2648,0.2602,0.2706,0.2522,0.2492,0.2609,0.2599,0.2559,0.2542,0.2703,0.2703,0.2702,0.2702,0,0.1545,0.1596,0.1648,0.176,0.1805,0.187,0.2028,0.21,0.2244,0.2356,0.2413,0.2549,0.2605,0.2658,0.2708,0.2629,0.2607,0.2574,0.2698,0.2671,0.2383,0.2373,0.2412,0.2407,0.2402,0.2399,0.2396,0,0.1514,0.153,0.1646,0.1681,0.174,0.1851,0.1922,0.209,0.2163,0.2349,0.2389,0.2507,0.2574,0.2509,0.2583,0.2566,0.2543,0.2508,0.2448,0.2392,0.236,0.2356,0.2352,0.2389,0.2388,0.2387,0.2385,0,0.1457,0.1506,0.155,0.1618,0.1696,0.1769,0.1896,0.1932,0.2116,0.2255,0.2303,0.2326,0.2388,0.241,0.2426,0.241,0.2506,0.2461,0.2469,0.2413,0.2364,0.2336,0.2337,0.237,0.2373,0.2374,0.2375,0,0.142,0.1424,0.1485,0.1534,0.1629,0.1668,0.174,0.1822,0.1912,0.2116,0.2125,0.2243,0.2369,0.2331,0.234,0.2316,0.2273,0.218,0.2202,0.2219,0.2137,0.2045,0.1941,0,0,0,0,0,0.136,0.1354,0.1396,0.1444,0.1536,0.1588,0.1713,0.1785,0.1953,0.1934,0.2026,0.2072,0.2086,0.2151,0.2084,0.2252,0.2281,0.2163,0.2186,0.2287,0.2304,0.2224,0,0,0,0,0,0,0.1315,0.1349,0.1354,0.1369,0.139,0.1472,0.1542,0.164,0.1646,0.1811,0.1834,0.195,0.2001,0.2109,0.205,0.2066,0.2035,0.2244,0.2239,0.2277,0.2293,0.2307,0.223,0,0,0,0,0]},{"header":{"parameterUnit":"m.s-1","parameterCategory":2,"la1":30.2991,"la2":30.254,"lo1":-89.0895,"lo2":-89.0444,"dy":0.0017,"dx":0.0017,"nx":28,"ny":28,"refTime":"2025-05-29T03:00:00:Z","depth":"4","parameterNumber":3,"parameterNumberName":"V-component_of_CURRENTS"},"data":[0,0,0,0,0,0,0,0,0,0,0,0,0,0,0,0,0,0,0,0,0,0,0,0,0,0,0,0,0,0,0,0,0,0,0,0,0,0,0,0,0,0,0,0,0,0,0,0,0,0,0,0,0,0,0,0,0,0,0.0217,0.0217,0,0.0189,0.0188,0.0188,0.0185,0.0185,0.0186,0.0186,0.0153,0.0152,0.0151,0,0,0,0,0,0,0,0,0,0,0,0,0,0.0222,0.0222,0.0217,0.0217,0.0217,0.0189,0.0188,0.0188,0.0185,0.0186,0.0186,0.0186,0.0154,0.0152,0.0151,0,0,0,0,0,0,0,0,0,0,0,0,0,0.0209,0.0222,0.0217,0.0212,0.0212,0.0189,0.0188,0.0188,0.0185,0.0186,0.0186,0.0187,0.0154,0.0153,0.0151,0.0129,0,0,0.0145,0.0145,0,0,0,0,0,0,0,0,0.021,0.0209,0.0213,0.0213,0.0212,0.0191,0.0178,0.0168,0.0185,0.0195,0.0186,0.0187,0.0166,0.0163,0.0156,0.0128,0.0126,0.0145,0.0144,0.0143,0.0143,0,0,0,0,0,0,0,0.0211,0.021,0.0205,0.0213,0.0212,0.0195,0.0194,0.0176,0.0177,0.0194,0.0194,0.0191,0.0165,0.0158,0.0155,0.0126,0.0145,0.0144,0.0143,0.0142,0.0104,0.0104,0,0,0,0,0,0,0.0217,0.0211,0.0206,0.0205,0.0213,0.0195,0.0194,0.0197,0.0177,0.0175,0.0191,0.0191,0.016,0.0157,0.0154,0.0152,0.0143,0.0142,0.0141,0.0104,0.0104,0.0104,0,0,0,0,0,0,0.0218,0.0217,0.0207,0.0207,0.0205,0.0195,0.0198,0.0196,0.0198,0.0175,0.0173,0.0195,0.0161,0.0156,0.0148,0.015,0.0141,0.0139,0.0104,0.0104,0.0104,0.0133,0,0,0,0,0,0,0.0218,0.0218,0.0226,0.0208,0.0205,0.0205,0.0197,0.0195,0.0195,0.0196,0.0178,0.0175,0.0161,0.0151,0.0146,0.0147,0.0138,0.0104,0.0104,0.0104,0.0132,0.0134,0.0136,0,0,0,0,0,0.0218,0.0226,0.0227,0.0227,0.0216,0.0206,0.0203,0.0196,0.0195,0.0199,0.0187,0.0176,0.0148,0.0149,0.0144,0.0145,0.0104,0.0104,0.0104,0.0131,0.0134,0.0136,0,0,0,0,0,0,0.0229,0.0226,0.0227,0.0233,0.0226,0.0206,0.0209,0.0201,0.0194,0.02,0.0176,0.0172,0.0164,0.015,0.0152,0.0134,0.0124,0.0123,0.0147,0.0149,0.0151,0.0163,0.0136,0,0,0,0,0,0.0236,0.0246,0.0235,0.0242,0.0241,0.0226,0.0223,0.022,0.0208,0.0206,0.0192,0.0177,0.0157,0.0152,0.0135,0.0126,0.0099,0.0123,0.0125,0.0127,0.0133,0.0091,0.009,0.0104,0.0104,0.0104,0,0,0.0242,0.0242,0.0248,0.0245,0.024,0.0245,0.0226,0.0228,0.0237,0.0203,0.0211,0.0183,0.0156,0.0146,0.0141,0.0137,0.0107,0.0127,0.0129,0.0134,0.0091,0.0089,0.0088,0.0104,0.0104,0.0104,0,0,0.026,0.026,0.0277,0.0275,0.0274,0.0265,0.0269,0.0257,0.0259,0.0256,0.0231,0.0206,0.0186,0.0162,0.0147,0.0149,0.0117,0.0145,0.0166,0.0125,0.0124,0.0122,0.0079,0.0074,0.0148,0.0148,0.0148,0,0.0269,0.0289,0.0278,0.0291,0.0296,0.0277,0.0295,0.0289,0.0277,0.0277,0.0269,0.0217,0.0194,0.0166,0.0167,0.0154,0.0125,0.016,0.0128,0.0126,0.0123,0.008,0.0073,0.0149,0.0149,0.0149,0.0149,0,0.0297,0.0316,0.0323,0.0338,0.0339,0.0351,0.0343,0.0345,0.0339,0.0328,0.0306,0.0261,0.0231,0.0212,0.0192,0.0162,0.0144,0.0133,0.0123,0.0124,0.0078,0.007,0.0151,0.0151,0.015,0.015,0,0,0.0314,0.0341,0.0345,0.0368,0.037,0.0376,0.0387,0.0389,0.0398,0.0371,0.0364,0.0316,0.0284,0.0264,0.0221,0.0181,0.0134,0.0155,0.0153,0.0114,0.0039,0.0053,0.0046,0.0116,0.0115,0.0114,0.0011,0,0.0344,0.0383,0.0386,0.0427,0.0449,0.0439,0.045,0.0448,0.0437,0.0424,0.0367,0.0348,0.0307,0.0287,0.0239,0.0159,0.0116,0.0162,0.0043,0.004,0.0053,0.0039,0.0111,0.0005,0.0003,0.0002,0.0001,0,0.0374,0.04,0.0446,0.0484,0.0492,0.0511,0.0525,0.0536,0.0508,0.0498,0.0456,0.0409,0.0341,0.0309,0.0176,0.0207,0.0133,0.0067,0.0061,0.0062,0.004,0.0005,-0.0013,-0.0012,-0.0011,-0.001,-0.0009,0,0.0398,0.0445,0.0487,0.05,0.0531,0.0554,0.0569,0.056,0.0579,0.0545,0.0539,0.045,0.041,0.0298,0.0174,0.0172,0.0024,0.0004,-0.0056,-0.0057,-0.0052,-0.0049,-0.0083,-0.0083,-0.0083,-0.0082,-0.0082,0,0.0428,0.0465,0.0508,0.0534,0.0591,0.0596,0.0645,0.0644,0.0639,0.0658,0.0584,0.0562,0.0408,0.0307,0.0183,0.0044,0.0033,-0.0055,-0.0081,-0.0038,-0.0032,-0.0058,-0.0054,-0.0086,-0.0085,-0.0085,-0.0084,0,0.0445,0.0471,0.0531,0.0583,0.0609,0.0649,0.071,0.0734,0.0728,0.0743,0.0736,0.0644,0.0518,0.0357,0.0173,0.0073,-0.0072,-0.0114,-0.0055,-0.0076,-0.0134,-0.0127,-0.0205,-0.0205,-0.0205,-0.0206,-0.0206,0,0.0454,0.0488,0.0571,0.0614,0.0646,0.0712,0.0755,0.078,0.0809,0.0794,0.0798,0.0692,0.0613,0.0361,0.019,-0.0047,-0.0074,-0.0156,-0.015,-0.0128,-0.0146,-0.0138,-0.0131,-0.0206,-0.0206,-0.0206,-0.0207,0,0.0475,0.0508,0.0555,0.0645,0.071,0.0783,0.0849,0.0877,0.09,0.0895,0.0853,0.0722,0.058,0.0377,0.0203,0.0032,-0.0112,-0.0159,-0.016,-0.0155,-0.0131,-0.0146,-0.0139,-0.0208,-0.0207,-0.0207,-0.0207,0,0.049,0.0522,0.0589,0.067,0.0756,0.0828,0.0863,0.0901,0.0931,0.0917,0.0903,0.0748,0.0661,0.0419,0.0253,0.0091,0.0042,-0.0021,-0.003,-0.0031,0.0053,0.0112,0.0086,0,0,0,0,0,0.0499,0.0536,0.0608,0.0695,0.0781,0.0834,0.0914,0.0938,0.0966,0.0948,0.0931,0.0803,0.0562,0.0455,0.0296,0.023,0.0002,0.0035,-0.0078,-0.0213,-0.0212,-0.0141,0,0,0,0,0,0,0.0502,0.0564,0.06,0.0707,0.077,0.0864,0.0917,0.0934,0.0929,0.0931,0.0811,0.0757,0.0526,0.0656,0.0291,0.0242,0.0146,-0.0073,-0.0077,-0.0214,-0.0213,-0.0212,-0.0139,0,0,0,0,0]}]]